Pauls Valley, OK

6:01 AM CST on February 13, 2016 (GMT -0600)
Pauls Valley Municipal

Weather History for KPVJ - May, 2013

Change the Weather History Date:

Tuesday, May 14, 2013

  Actual Average (KADH) Record (KADH)
Temperature  
Mean Temperature 74 °F -  
Max Temperature 89 °F 80 °F 90 °F (1952)
Min Temperature 59 °F 57 °F 45 °F (1907)
Cooling Degree Days 9    
Growing Degree Days 24 (Base 50)    
Moisture  
Dew Point 49 °F    
Average Humidity 40    
Maximum Humidity 63    
Minimum Humidity 22    
Precipitation  
Precipitation 0.00 in - - ()
Sea Level Pressure  
Sea Level Pressure 30.03 in    
Wind  
Wind Speed 11 mph (SSW)    
Max Wind Speed 21 mph    
Max Gust Speed 26 mph    
Visibility 10 miles    
Events      
Averages and records for this station are not official NWS values.
T = Trace of Precipitation, MM = Missing Value Source: NWS Daily Summary

Daily Weather History Graph

Daily Weather History Graph

Search for Another Location

Airport or City:

Trip Planner

Search our weather history database for the weather conditions in past years. The results will help you decide how hot, cold, wet, or windy it might be!

Date:

Astronomy

May. 14, 2013 Rise Set
Actual Time 6:26 AM CDT 8:24 PM CDT
Civil Twilight 5:58 AM CDT 8:52 PM CDT
Nautical Twilight 5:24 AM CDT 9:26 PM CDT
Astronomical Twilight 4:48 AM CDT 10:02 PM CDT
Moon 10:06 AM CDT (5/14) No Moon Set
Length of Visible Light 14h 53m
Length of Day
13h 57m
Waxing Crescent, 19% of the Moon is Illuminated
May 14
Waxing Crescent
May 17
First Quarter
May 24
Full
May 31
Last Quarter
Jun 8
New

Hourly Weather History & Observations

Time (CDT) Temp. Heat Index Dew Point Humidity Pressure Visibility Wind Dir Wind Speed Gust Speed Precip Events Conditions
12:15 AM 71.6 °F - 42.8 °F 35% 30.08 in 10.0 mi SSW 9.2 mph - N/A   Unknown
12:35 AM 69.8 °F - 42.8 °F 38% 30.08 in 10.0 mi South 8.1 mph - N/A   Unknown
12:55 AM 71.6 °F - 42.8 °F 35% 30.08 in 10.0 mi SSW 10.4 mph - N/A   Unknown
1:15 AM 69.8 °F - 42.8 °F 38% 30.08 in 10.0 mi SSW 10.4 mph - N/A   Unknown
1:35 AM 69.8 °F - 42.8 °F 38% 30.08 in 10.0 mi SSW 9.2 mph - N/A   Unknown
1:55 AM 69.8 °F - 44.6 °F 40% 30.07 in 10.0 mi SSW 9.2 mph - N/A   Unknown
2:15 AM 68.0 °F - 44.6 °F 43% 30.06 in 10.0 mi SSW 9.2 mph - N/A   Unknown
2:35 AM 68.0 °F - 44.6 °F 43% 30.06 in 10.0 mi SSW 10.4 mph - N/A   Unknown
2:55 AM 68.0 °F - 44.6 °F 43% 30.06 in 10.0 mi SSW 9.2 mph - N/A   Unknown
3:15 AM 66.2 °F - 44.6 °F 46% 30.06 in 10.0 mi SSW 9.2 mph - N/A   Unknown
3:35 AM 64.4 °F - 44.6 °F 49% 30.06 in 10.0 mi SSW 6.9 mph - N/A   Unknown
3:55 AM 64.4 °F - 44.6 °F 49% 30.06 in 10.0 mi SSW 9.2 mph - N/A   Unknown
4:15 AM 64.4 °F - 44.6 °F 49% 30.06 in 10.0 mi SSW 10.4 mph - N/A   Unknown
4:35 AM 64.4 °F - 46.4 °F 52% 30.06 in 10.0 mi SSW 9.2 mph - N/A   Unknown
4:55 AM 64.4 °F - 46.4 °F 52% 30.06 in 10.0 mi SSW 8.1 mph - N/A   Unknown
5:15 AM 64.4 °F - 46.4 °F 52% 30.06 in 10.0 mi South 8.1 mph - N/A   Unknown
5:35 AM 62.6 °F - 46.4 °F 55% 30.06 in 10.0 mi South 6.9 mph - N/A   Unknown
5:55 AM 62.6 °F - 46.4 °F 55% 30.07 in 10.0 mi South 6.9 mph - N/A   Unknown
6:15 AM 60.8 °F - 46.4 °F 59% 30.08 in 10.0 mi South 8.1 mph - N/A   Unknown
6:35 AM 59.0 °F - 46.4 °F 63% 30.08 in 10.0 mi SSW 5.8 mph - N/A   Unknown
6:55 AM 60.8 °F - 46.4 °F 59% 30.08 in 10.0 mi SSW 5.8 mph - N/A   Unknown
7:15 AM 60.8 °F - 46.4 °F 59% 30.08 in 10.0 mi South 4.6 mph - N/A   Unknown
7:35 AM 62.6 °F - 48.2 °F 59% 30.08 in 10.0 mi SSW 6.9 mph - N/A   Unknown
7:55 AM 64.4 °F - 48.2 °F 56% 30.09 in 10.0 mi SSW 5.8 mph - N/A   Unknown
8:15 AM 68.0 °F - 50.0 °F 52% 30.09 in 10.0 mi SSW 8.1 mph - N/A   Unknown
8:35 AM 69.8 °F - 50.0 °F 49% 30.10 in 10.0 mi SW 6.9 mph - N/A   Unknown
8:55 AM 71.6 °F - 50.0 °F 46% 30.10 in 10.0 mi SW 8.1 mph 16.1 mph N/A   Unknown
9:15 AM 73.4 °F - 50.0 °F 44% 30.10 in 10.0 mi SW 11.5 mph 18.4 mph N/A   Unknown
9:35 AM 73.4 °F - 51.8 °F 47% 30.10 in 10.0 mi SW 9.2 mph - N/A   Unknown
9:55 AM 77.0 °F - 51.8 °F 41% 30.11 in 10.0 mi WSW 11.5 mph - N/A   Unknown
10:15 AM 77.0 °F - 51.8 °F 41% 30.10 in 10.0 mi WSW 10.4 mph - N/A   Unknown
10:35 AM 78.8 °F - 51.8 °F 39% 30.11 in 10.0 mi SW 12.7 mph 20.7 mph N/A   Unknown
10:55 AM 78.8 °F - 51.8 °F 39% 30.11 in 10.0 mi SW 12.7 mph - N/A   Unknown
11:15 AM 80.6 °F 80.3 °F 53.6 °F 39% 30.11 in 10.0 mi SSW 12.7 mph 19.6 mph N/A   Unknown
11:35 AM 80.6 °F 80.3 °F 53.6 °F 39% 30.11 in 10.0 mi SW 12.7 mph 18.4 mph N/A   Unknown
11:55 AM 82.4 °F 81.4 °F 53.6 °F 37% 30.10 in 10.0 mi SW 12.7 mph 17.3 mph N/A   Unknown
12:15 PM 82.4 °F 81.4 °F 53.6 °F 37% 30.09 in 10.0 mi SW 9.2 mph 19.6 mph N/A   Unknown
12:35 PM 82.4 °F 81.4 °F 53.6 °F 37% 30.08 in 10.0 mi SSW 10.4 mph 17.3 mph N/A   Unknown
12:55 PM 84.2 °F 82.8 °F 53.6 °F 35% 30.07 in 10.0 mi SSW 10.4 mph 16.1 mph N/A   Unknown
1:15 PM 86.0 °F - 51.8 °F 31% 30.06 in 10.0 mi SW 16.1 mph 21.9 mph N/A   Unknown
1:35 PM 86.0 °F - 51.8 °F 31% 30.05 in 10.0 mi SSW 15.0 mph 20.7 mph N/A   Unknown
1:55 PM 86.0 °F - 51.8 °F 31% 30.04 in 10.0 mi South 13.8 mph 24.2 mph N/A   Unknown
2:15 PM 87.8 °F - 51.8 °F 29% 30.03 in 10.0 mi SSW 13.8 mph 20.7 mph N/A   Unknown
2:35 PM 87.8 °F - 50.0 °F 27% 30.02 in 10.0 mi South 15.0 mph 19.6 mph N/A   Unknown
2:55 PM 87.8 °F - 50.0 °F 27% 30.01 in 10.0 mi South 13.8 mph 20.7 mph N/A   Unknown
3:15 PM 87.8 °F - 46.4 °F 24% 30.01 in 10.0 mi SSW 16.1 mph - N/A   Unknown
3:35 PM 89.6 °F - 46.4 °F 22% 30.00 in 10.0 mi South 12.7 mph - N/A   Unknown
3:55 PM 87.8 °F - 46.4 °F 24% 29.99 in 10.0 mi South 20.7 mph 25.3 mph N/A   Unknown
4:15 PM 89.6 °F - 48.2 °F 24% 29.98 in 10.0 mi South 12.7 mph 21.9 mph N/A   Unknown
4:35 PM 87.8 °F - 46.4 °F 24% 29.98 in 10.0 mi SSW 16.1 mph 25.3 mph N/A   Unknown
4:55 PM 87.8 °F - 46.4 °F 24% 29.97 in 10.0 mi South 16.1 mph 21.9 mph N/A   Unknown
5:15 PM 89.6 °F - 48.2 °F 24% 29.96 in 10.0 mi South 18.4 mph 21.9 mph N/A   Unknown
5:35 PM 87.8 °F - 50.0 °F 27% 29.96 in 10.0 mi SSW 18.4 mph 21.9 mph N/A   Unknown
5:55 PM 87.8 °F - 50.0 °F 27% 29.96 in 10.0 mi South 17.3 mph 25.3 mph N/A   Unknown
6:15 PM 86.0 °F - 50.0 °F 29% 29.95 in 10.0 mi South 13.8 mph - N/A   Unknown
6:35 PM 86.0 °F - 51.8 °F 31% 29.95 in 10.0 mi South 16.1 mph 23.0 mph N/A   Unknown
6:55 PM 84.2 °F - 51.8 °F 33% 29.94 in 10.0 mi South 15.0 mph 26.5 mph N/A   Unknown
7:15 PM 82.4 °F 81.4 °F 53.6 °F 37% 29.94 in 10.0 mi SSE 11.5 mph - N/A   Unknown
7:35 PM 82.4 °F 81.4 °F 53.6 °F 37% 29.94 in 10.0 mi SSE 16.1 mph 19.6 mph N/A   Unknown
7:55 PM 80.6 °F 80.3 °F 53.6 °F 39% 29.94 in 10.0 mi SSE 15.0 mph - N/A   Unknown
8:15 PM 78.8 °F - 53.6 °F 42% 29.94 in 10.0 mi SSE 12.7 mph - N/A   Unknown
8:35 PM 78.8 °F - 55.4 °F 44% 29.94 in 10.0 mi SSE 12.7 mph - N/A   Unknown
8:55 PM 77.0 °F - 53.6 °F 44% 29.94 in 10.0 mi SSE 12.7 mph 17.3 mph N/A   Unknown
9:15 PM 77.0 °F - 53.6 °F 44% 29.94 in 10.0 mi South 13.8 mph 20.7 mph N/A   Unknown
9:35 PM 77.0 °F - 51.8 °F 41% 29.95 in 10.0 mi SSE 15.0 mph 21.9 mph N/A   Unknown
9:55 PM 77.0 °F - 50.0 °F 39% 29.96 in 10.0 mi SSE 16.1 mph 23.0 mph N/A   Unknown
10:15 PM 75.2 °F - 50.0 °F 41% 29.97 in 10.0 mi SSE 12.7 mph 23.0 mph N/A   Unknown
10:35 PM 75.2 °F - 50.0 °F 41% 29.98 in 10.0 mi South 12.7 mph 18.4 mph N/A   Unknown
10:55 PM 73.4 °F - 50.0 °F 44% 29.99 in 10.0 mi South 12.7 mph 19.6 mph N/A   Unknown
11:15 PM 73.4 °F - 51.8 °F 47% 29.98 in 10.0 mi South 15.0 mph 19.6 mph N/A   Unknown
11:35 PM 73.4 °F - 51.8 °F 47% 29.98 in 10.0 mi SSE 12.7 mph 18.4 mph N/A   Unknown
11:55 PM 71.6 °F - 51.8 °F 50% 29.99 in 10.0 mi South 12.7 mph 20.7 mph N/A   Unknown